Location: Sternwarte_Laufen
(47.9344°N, 12.9346°E)
Time: 23:02:25
(UTC+01:00)

N. Korean satellite - Visible Passes

Search period start: 14 December 2018 00:00
Search period end: 24 December 2018 00:00
Orbit: 456 x 511 km, 97.2° (Epoch: 13 December)

Date Brightness Start Highest point End Pass type
(mag) Time Alt. Az. Time Alt. Az. Time Alt. Az.
14 Dec 9.8 05:31:29 10° NE 05:33:44 16° E 05:35:59 10° SE visible
14 Dec 7.0 07:04:00 10° N 07:07:21 40° WNW 07:10:45 10° SW visible
14 Dec 6.9 17:42:53 10° S 17:46:17 64° WSW 17:49:44 10° NNW visible
15 Dec 6.5 06:39:16 10° N 06:42:51 81° WNW 06:46:28 10° SSW visible
15 Dec 6.4 17:18:20 10° SSE 17:21:43 61° ENE 17:25:08 10° N visible
16 Dec 7.6 06:14:45 10° NNE 06:18:15 50° E 06:21:47 10° S visible
16 Dec 7.2 16:54:11 10° SE 16:57:14 30° ENE 17:00:19 10° N visible
16 Dec 9.4 18:28:17 10° SW 18:30:46 19° W 18:33:16 10° NW visible
17 Dec 8.9 05:50:30 10° NE 05:53:35 26° E 05:56:40 10° SSE visible
17 Dec 8.2 18:02:51 10° SSW 18:06:03 35° W 18:09:15 10° NNW visible
18 Dec 9.9 05:26:48 10° ENE 05:28:49 14° E 05:30:52 10° SE visible
18 Dec 6.8 06:59:03 10° N 07:02:30 46° WNW 07:06:01 10° SW visible
18 Dec 6.7 17:37:58 10° S 17:41:23 74° W 17:44:52 10° NNW visible
19 Dec 6.6 06:34:21 10° NNE 06:37:58 88° E 06:41:38 10° SSW visible
19 Dec 6.5 17:13:28 10° SSE 17:16:50 53° ENE 17:20:13 10° N visible
19 Dec 10.0 18:49:32 10° WSW 18:50:37 11° W 18:51:44 10° WNW visible
20 Dec 7.8 06:09:52 10° NNE 06:13:22 44° E 06:16:53 10° S visible
20 Dec 7.4 16:49:23 10° SE 16:52:20 27° ENE 16:55:20 10° N visible
20 Dec 9.2 18:23:09 10° SW 18:25:49 21° W 18:28:31 10° NW visible
21 Dec 9.1 05:45:41 10° NE 05:48:40 23° E 05:51:39 10° SSE visible
21 Dec 7.9 17:57:49 10° S 18:01:05 40° W 18:04:24 10° NNW visible
22 Dec 10.0 05:22:08 10° ENE 05:23:52 13° E 05:25:38 10° ESE visible
22 Dec 6.7 06:54:04 10° N 06:57:37 52° WNW 07:01:13 10° SSW visible
22 Dec 6.5 17:33:00 10° SSE 17:36:26 85° WSW 17:39:56 10° NNW visible
23 Dec 6.7 06:29:24 10° NNE 06:33:04 78° ESE 06:36:45 10° S visible
23 Dec 6.7 17:08:34 10° SSE 17:11:53 46° ENE 17:15:15 10° N visible
23 Dec 9.9 18:44:00 10° WSW 18:45:37 13° W 18:47:16 10° WNW visible
